Location: Auzill�
(47.6176°N, 1.2402°W)
Time: 01:06:33
(UTC+00:00)

Daily predictions for brighter satellites

Satellite Brightness Start Highest point End
(mag) Time Altitude Azimuth Time Altitude Azimuth Time Altitude Azimuth
USA 215 4.4 03:21:29 10° E 03:25:43 37° ENE 03:25:43 37° ENE
Cosmos 1943 Rocket 3.1 04:06:38 45° E 04:06:38 45° E 04:11:39 10° NE
CZ-2C R/B 4.4 04:05:08 10° ESE 04:09:44 28° ENE 04:13:24 14° NNE
CENTAUR R/B 2.7 04:16:08 64° SE 04:16:14 64° ESE 04:23:10 10° NE
Cosmos 2297 4.1 04:21:07 60° ESE 04:21:07 60° ESE 04:26:45 10° NNE
NOSS 3-2 (A) 3.4 04:27:49 72° NE 04:27:49 72° NE 04:33:41 10° NE
Cosmos 2278 Rocket 4.1 04:33:50 19° N 04:33:50 19° N 04:35:33 10° NNE
NOSS 3-2 (C) 3.7 04:33:35 49° S 04:34:47 60° ESE 04:41:05 10° NE
Envisat 4.5 04:31:03 10° NNE 04:35:44 36° E 04:40:22 10° SSE
Meteor 2-3 Rocket 3.9 04:36:38 10° S 04:42:15 73° E 04:47:59 10° NNE
Cosmos 968 Rocket 3.9 04:42:38 27° S 04:45:21 59° ESE 04:50:24 10° NNE
Cosmos 921 Rocket 3.4 04:50:35 61° ENE 04:50:35 61° ENE 04:54:52 10° SSE
Meteor 1-26 Rocket 4.2 04:53:50 33° NNW 04:56:43 87° W 05:02:31 10° S
Cosmos 1812 3.6 04:56:57 48° ENE 04:57:05 48° ENE 05:00:48 10° SSE
USA 238 DEB 3.5 05:00:10 40° SW 05:02:46 85° NW 05:09:43 10° NE
USA 238 3.5 05:00:14 40° SW 05:02:53 85° NW 05:09:49 10° NE
Cosmos 1151 Rocket 3.7 05:01:35 25° N 05:03:56 55° ENE 05:08:14 10° SSE
Cosmos 2344 3.5 05:03:34 45° W 05:05:41 61° NW 05:13:38 10° NE
Cosmos 1816 Rocket 4.5 05:07:03 28° SW 05:10:14 55° WNW 05:16:26 10° N
USA 215 3.2 05:03:47 10° ESE 05:10:20 89° NNE 05:13:03 39° NW
Kosmos-917 4.2 05:12:30 53° NNE 05:12:30 53° NNE 05:16:23 10° NE
Cosmos 1782 4.2 05:15:55 26° SSW 05:15:55 26° SSW 05:17:44 10° S
Meteor 1-31 Rocket 3.4 05:10:25 10° NNE 05:14:15 56° E 05:18:06 10° S
Cosmos 2279 Rocket 4.2 05:08:21 10° N 05:14:33 68° E 05:20:42 10° SSE
Cosmos 1328 Rocket 4.3 05:12:41 12° N 05:16:37 53° ENE 05:20:53 10° SSE
SJ-12 3.8 05:15:33 10° NNE 05:19:43 89° ESE 05:23:51 10° SSW
FALCON 9 DEB 3.6 05:21:07 54° NE 05:21:07 54° NE 05:23:51 10° ENE
Cosmos 2369 Rocket 2.2 05:15:09 10° SSW 05:20:43 78° ESE 05:26:21 10° NNE
Cosmos 1862 3.8 05:18:56 10° S 05:22:48 58° E 05:26:42 10° NNE
COSMO-SKYMED 1 2.4 05:19:57 10° S 05:24:17 75° WSW 05:25:48 40° NNW
H-2A R/B 2.5 05:23:59 10° N 05:27:41 73° WNW 05:31:25 10° SSW
Cosmos 1634 Rocket 3.9 05:23:25 10° NNW 05:29:38 63° W 05:35:45 10° S
Cosmos 1867 4.5 05:30:57 29° WSW 05:30:57 29° WSW 05:35:13 10° S
Cosmos 836 Rocket 4.4 05:27:51 27° NNW 05:30:48 79° WSW 05:36:01 10° SSE
Tsikada Rocket 4.2 05:32:11 10° SW 05:38:04 44° WNW 05:44:05 10° N
CZ-4B R/B 4.2 05:38:15 10° ESE 05:40:28 17° ENE 05:42:41 10° NNE
MOS 1-B Rocket 4.2 05:34:37 10° S 05:40:40 45° W 05:44:44 18° NNW
Cosmos 1656 Rocket 3.6 05:38:59 10° SSW 05:44:23 86° ESE 05:49:52 10° NNE
Cosmos 1503 Rocket 4.4 05:39:43 10° S 05:44:57 69° ESE 05:50:15 10° NNE
CZ-4C R/B 2.5 05:42:07 10° S 05:45:15 73° WSW 05:46:01 47° NNW
DMSP B5D2-2 4.3 05:40:34 10° SSE 05:45:45 71° ENE 05:50:58 10° N
Cosmos 2227 Rocket 4.5 05:46:13 10° N 05:49:33 16° NE 05:52:54 10° ENE
CZ-2C R/B 2.9 05:44:29 10° S 05:49:47 49° W 05:54:54 11° NNW
Cosmos 1943 Rocket 2.8 05:48:15 27° W 05:50:10 35° NW 05:55:20 10° NNE
Cosmos 1486 Rocket 4.0 05:47:20 10° SSW 05:52:36 65° WNW 05:57:52 10° NNE
SL-8 R/B 3.7 05:54:21 28° W 05:56:48 70° SSW 06:01:33 10° ESE
FALCON 9 DEB 3.6 05:56:51 32° NNW 05:56:57 32° NNW 05:59:37 10° NE
Cosmos 1515 Rocket 3.7 05:52:35 10° N 05:56:59 76° E 06:01:19 10° SSE
Meteor 2-15 4.4 05:52:09 10° N 05:58:16 87° W 06:04:19 10° S
Cosmos 2180 Rocket 4.4 05:53:43 10° NNW 05:59:53 74° W 06:05:59 10° S
Meteor 1-27 Rocket 4.1 05:54:19 10° N 05:59:56 69° ENE 06:05:38 10° SSE
Iridium 2 4.3 05:58:34 10° SW 06:02:02 33° W 06:05:30 10° NNW
FALCON 9 DEB 3.8 06:03:16 27° NNW 06:03:37 28° N 06:06:10 10° NE
Cosmos 773 Rocket 4.1 05:58:58 10° NNW 06:04:15 82° ENE 06:09:26 10° SSE
FALCON 9 DEB 3.9 06:05:15 26° NNW 06:05:43 27° N 06:08:14 10° NE
SJ 16-02 2.8 06:02:15 10° S 06:06:20 40° ESE 06:10:27 10° NE
CENTAUR R/B 3.2 06:03:21 19° W 06:07:23 39° NNW 06:14:20 10° NE
NOAA 11 4.1 06:03:08 10° NNE 06:08:38 81° WNW 06:14:07 10° SSW
Alouette 2 Rocket 4.2 06:06:27 10° N 06:10:20 48° ENE 06:13:47 10° SSE
Meteor 2-19 Rocket 4.4 06:06:51 10° S 06:12:55 88° E 06:19:01 10° N
NOAA 12 4.3 06:08:30 10° NNE 06:13:49 75° ESE 06:19:02 10° S
Cosmos 1340 Rocket 3.7 06:10:52 10° S 06:14:41 51° E 06:18:34 10° NNE
Envisat 3.6 06:10:09 10° N 06:14:42 34° WNW 06:19:14 10° SW
Cosmos 2278 Rocket 4.2 06:15:47 10° NNW 06:16:18 10° NNW 06:16:49 10° NNW
SL-27 R/B 2.4 06:14:04 11° NNW 06:17:31 89° WSW 06:21:05 10° SSE
Cosmos 1500 Rocket 4.1 06:13:43 10° S 06:18:07 65° E 06:22:34 10° NNE
NOSS 3-2 (A) 4.4 06:15:14 17° WNW 06:18:53 30° NNW 06:24:51 10° NE
Cosmos 1939 Rocket 3.0 06:16:22 10° NNE 06:20:21 73° ESE 06:24:13 10° S
FALCON 9 DEB 3.9 06:21:30 21° NW 06:22:42 28° N 06:25:17 10° NE
Cosmos 2098 Rocket 3.9 06:19:29 10° SW 06:22:57 28° WNW 06:27:11 10° N
NOSS 3-2 (C) 4.0 06:21:05 12° W 06:26:04 37° NNW 06:32:20 10° NE
Okean O Rocket 4.4 06:27:11 10° NE 06:30:37 21° E 06:34:00 10° SE
Okean 3 Rocket 4.3 06:27:28 10° SW 06:31:31 31° WNW 06:35:35 10° N
Sich 1 4.5 06:27:38 10° SSE 06:31:39 41° E 06:35:41 10° NNE
Cosmos 1812 4.4 06:32:03 14° WNW 06:32:24 14° W 06:34:27 10° WSW
H-2A R/B 2.1 06:28:14 10° S 06:32:25 61° WSW 06:36:46 10° NNW
ATLAS 3B R/B 3.5 06:28:00 10° SSW 06:34:17 54° ESE 06:40:54 10° NE
Cosmos 1174 4.3 06:34:52 10° SSW 06:37:43 46° ESE 06:40:44 10° NE
ATLAS 5 CENTAUR R/B 2.2 06:34:26 10° SSW 06:38:09 53° SE 06:42:21 10° NE
ADEOS 3.9 06:33:57 10° N 06:38:50 41° WNW 06:43:42 10° SW
Cosmos 158 Rocket 4.2 06:34:29 10° NNW 06:39:36 75° ENE 06:44:50 10° SSE
Cosmos 1354 Rocket 4.2 06:40:05 10° SW 06:45:11 48° WNW 06:50:20 10° NNE
Cosmos 1515 3.6 06:41:40 10° NNW 06:45:28 79° W 06:49:16 10° S
Meteor PRIRODA 4.3 06:42:58 10° N 06:46:15 33° WNW 06:49:31 10° SW
Okean 1 3.9 06:42:30 10° N 06:46:26 58° ENE 06:50:19 10° SSE
CZ-2C R/B 3.2 06:42:37 10° N 06:47:14 46° WNW 06:52:02 10° SW
Meteor 1-31 Rocket 4.4 06:45:57 10° NNW 06:48:13 15° WNW 06:50:29 10° W
NOSS 2 (A) 4.1 06:50:17 10° NW 06:53:06 81° SW 06:55:34 10° SE
USA 215 4.2 06:48:13 10° S 06:53:51 31° SW 06:59:31 10° WNW
FALCON 9 DEB 4.0 06:54:27 10° WNW 06:57:33 33° N 07:00:41 10° ENE
Cosmos 2297 Rocket 3.1 06:53:57 10° NNW 06:59:27 49° NE 07:04:56 10° SE
SMAP 3.1 06:55:55 10° N 07:00:30 58° WNW 07:05:03 10° SSW
